New Ulm, MN

5:14 PM CDT on July 26, 2017 (GMT -0500)
New Ulm Municipal

Weather History for KULM - September, 2013

Change the Weather History Date:

Tuesday, September 24, 2013

  Actual Average Record
Temperature  
Mean Temperature 60 °F -  
Max Temperature 69 °F 69 °F 89 °F (1958)
Min Temperature 51 °F 44 °F 3 °F (1997)
Degree Days  
Heating Degree Days 5    
Growing Degree Days 10 (Base 50)    
Moisture  
Dew Point 52 °F    
Average Humidity 80    
Maximum Humidity 100    
Minimum Humidity 56    
Precipitation  
Precipitation 0.00 in - - ()
Sea Level Pressure  
Sea Level Pressure 29.92 in    
Wind  
Wind Speed 5 mph (ESE)    
Max Wind Speed 13 mph    
Max Gust Speed 16 mph    
Visibility 10 miles    
Events      
Averages and records for this station are not official NWS values.
T = Trace of Precipitation, MM = Missing Value Source: NWS Daily Summary

Daily Weather History Graph

Daily Weather History Graph

Search for Another Location

Airport or City:

Trip Planner

Search our weather history database for the weather conditions in past years. The results will help you decide how hot, cold, wet, or windy it might be!

Date:

Astronomy

Sep. 24, 2013 Rise Set
Actual Time 7:07 AM CDT 7:11 PM CDT
Civil Twilight 6:38 AM CDT 7:40 PM CDT
Nautical Twilight 6:04 AM CDT 8:13 PM CDT
Astronomical Twilight 5:30 AM CDT 8:48 PM CDT
Moon 10:17 PM CDT (9/24) 12:34 PM CDT (9/24)
Length of Visible Light 13h 01m
Length of Day
12h 03m
Waning Gibbous, 73% of the Moon is Illuminated
Sep 24
Waning Gibbous
Sep 26
Last Quarter
Oct 4
New
Oct 11
First Quarter
Oct 18
Full

Hourly Weather History & Observations

Time (CDT) Temp. Dew Point Humidity Pressure Visibility Wind Dir Wind Speed Gust Speed Precip Events Conditions
12:13 AM 59.0 °F 50.0 °F 72% 29.90 in 10.0 mi SE 12.7 mph - N/A   Clear
12:33 AM 57.2 °F 50.0 °F 77% 29.90 in 10.0 mi SE 9.2 mph 16.1 mph N/A   Clear
12:53 AM 57.2 °F 50.0 °F 77% 29.91 in 10.0 mi SE 8.1 mph - N/A   Clear
1:12 AM 55.4 °F 50.0 °F 82% 29.91 in 10.0 mi SE 8.1 mph - N/A   Clear
1:33 AM 55.4 °F 50.0 °F 82% 29.91 in 10.0 mi SE 6.9 mph - N/A   Clear
1:53 AM 55.4 °F 50.0 °F 82% 29.91 in 10.0 mi SE 8.1 mph - N/A   Clear
2:12 AM 55.4 °F 50.0 °F 82% 29.90 in 10.0 mi SE 8.1 mph - N/A   Clear
2:33 AM 53.6 °F 50.0 °F 88% 29.91 in 10.0 mi SE 6.9 mph - N/A   Clear
2:53 AM 53.6 °F 50.0 °F 88% 29.90 in 10.0 mi SE 6.9 mph - N/A   Clear
3:12 AM 53.6 °F 50.0 °F 88% 29.90 in 10.0 mi ESE 6.9 mph - N/A   Clear
3:33 AM 53.6 °F 50.0 °F 88% 29.90 in 10.0 mi SE 8.1 mph - N/A   Clear
3:53 AM 51.8 °F 50.0 °F 94% 29.90 in 10.0 mi ESE 6.9 mph - N/A   Clear
4:12 AM 51.8 °F 50.0 °F 94% 29.89 in 10.0 mi SE 6.9 mph - N/A   Clear
4:33 AM 51.8 °F 50.0 °F 94% 29.90 in 10.0 mi SE 5.8 mph - N/A   Clear
4:53 AM 51.8 °F 50.0 °F 94% 29.90 in 10.0 mi SE 5.8 mph - N/A   Clear
5:12 AM 51.8 °F 50.0 °F 94% 29.90 in 10.0 mi SE 5.8 mph - N/A   Clear
5:33 AM 51.8 °F 50.0 °F 94% 29.90 in 10.0 mi SE 6.9 mph - N/A   Clear
5:52 AM 51.8 °F 50.0 °F 94% 29.90 in 10.0 mi ESE 4.6 mph - N/A   Clear
6:13 AM 51.8 °F 50.0 °F 94% 29.90 in 10.0 mi ESE 3.5 mph - N/A   Clear
6:33 AM 51.8 °F 50.0 °F 94% 29.90 in 10.0 mi East 3.5 mph - N/A   Clear
6:52 AM 51.8 °F 50.0 °F 94% 29.91 in 10.0 mi East 4.6 mph - N/A   Clear
7:13 AM 51.8 °F 50.0 °F 94% 29.91 in 10.0 mi East 4.6 mph - N/A   Clear
7:33 AM 51.8 °F 50.0 °F 94% 29.92 in 10.0 mi East 3.5 mph - N/A   Clear
7:52 AM 51.8 °F 50.0 °F 94% 29.92 in 10.0 mi Calm Calm - N/A   Clear
8:13 AM 53.6 °F 50.0 °F 88% 29.92 in 10.0 mi East 5.8 mph - N/A   Clear
8:33 AM 53.6 °F 50.0 °F 88% 29.93 in 10.0 mi SE 6.9 mph - N/A   Clear
8:52 AM 55.4 °F 50.0 °F 82% 29.93 in 10.0 mi ESE 9.2 mph - N/A   Clear
9:13 AM 55.4 °F 50.0 °F 82% 29.93 in 10.0 mi ESE 9.2 mph - N/A   Clear
9:32 AM 55.4 °F 50.0 °F 82% 29.93 in 10.0 mi ESE 9.2 mph - N/A   Clear
9:53 AM 57.2 °F 51.8 °F 82% 29.94 in 10.0 mi East 5.8 mph - N/A   Clear
10:13 AM 57.2 °F 50.0 °F 77% 29.94 in 10.0 mi Calm Calm - N/A   Clear
10:32 AM 57.2 °F 51.8 °F 82% 29.94 in 10.0 mi Calm Calm - N/A   Clear
10:53 AM 57.2 °F 51.8 °F 82% 29.95 in 10.0 mi SSE 3.5 mph - N/A   Clear
11:13 AM 59.0 °F 51.8 °F 77% 29.95 in 10.0 mi Calm Calm - N/A   Clear
11:32 AM 60.8 °F 51.8 °F 72% 29.95 in 10.0 mi Calm Calm - N/A   Clear
11:53 AM 62.6 °F 51.8 °F 68% 29.94 in 10.0 mi Calm Calm - N/A   Clear
12:13 PM 62.6 °F 53.6 °F 72% 29.95 in 10.0 mi Calm Calm - N/A   Clear
12:32 PM 62.6 °F 51.8 °F 68% 29.95 in 10.0 mi Calm Calm - N/A   Clear
12:53 PM 62.6 °F 51.8 °F 68% 29.95 in 10.0 mi Calm Calm - N/A   Clear
1:13 PM 62.6 °F 53.6 °F 72% 29.95 in 10.0 mi Calm Calm - N/A   Clear
1:32 PM 62.6 °F 53.6 °F 72% 29.95 in 10.0 mi Calm Calm - N/A   Clear
1:53 PM 62.6 °F 53.6 °F 72% 29.95 in 10.0 mi Calm Calm - N/A   Clear
2:12 PM 64.4 °F 53.6 °F 68% 29.94 in 10.0 mi Calm Calm - N/A   Clear
2:33 PM 64.4 °F 53.6 °F 68% 29.94 in 10.0 mi Calm Calm - N/A   Clear
2:53 PM 64.4 °F 53.6 °F 68% 29.93 in 10.0 mi Calm Calm - N/A   Clear
3:12 PM 66.2 °F 53.6 °F 64% 29.93 in 10.0 mi Calm Calm - N/A   Clear
3:33 PM 66.2 °F 53.6 °F 64% 29.92 in 10.0 mi Calm Calm - N/A   Clear
3:53 PM 66.2 °F 53.6 °F 64% 29.92 in 10.0 mi Calm Calm - N/A   Clear
4:12 PM 66.2 °F 55.4 °F 68% 29.92 in 10.0 mi Calm Calm - N/A   Clear
4:33 PM 68.0 °F 53.6 °F 60% 29.92 in 10.0 mi Calm Calm - N/A   Clear
4:53 PM 68.0 °F 53.6 °F 60% 29.92 in 10.0 mi Calm Calm - N/A   Clear
5:12 PM 68.0 °F 55.4 °F 64% 29.92 in 10.0 mi Calm Calm - N/A   Clear
5:33 PM 69.8 °F 55.4 °F 60% 29.93 in 10.0 mi Calm Calm - N/A   Clear
5:53 PM 69.8 °F 55.4 °F 60% 29.93 in 10.0 mi Calm Calm - N/A   Clear
6:12 PM 69.8 °F 53.6 °F 56% 29.92 in 10.0 mi Calm Calm - N/A   Clear
6:33 PM 69.8 °F 55.4 °F 60% 29.92 in 10.0 mi Calm Calm - N/A   Clear
6:53 PM 68.0 °F 55.4 °F 64% 29.92 in 10.0 mi Calm Calm - N/A   Clear
7:12 PM 66.2 °F 55.4 °F 68% 29.92 in 10.0 mi Calm Calm - N/A   Clear
7:33 PM 64.4 °F 55.4 °F 73% 29.93 in 10.0 mi Calm Calm - N/A   Clear
7:53 PM 64.4 °F 55.4 °F 73% 29.93 in 10.0 mi Calm Calm - N/A   Clear
8:12 PM 62.6 °F 55.4 °F 77% 29.93 in 10.0 mi Calm Calm - N/A   Clear
8:33 PM 62.6 °F 55.4 °F 77% 29.93 in 10.0 mi Calm Calm - N/A   Clear
8:53 PM 60.8 °F 55.4 °F 82% 29.93 in 10.0 mi Calm Calm - N/A   Clear
9:12 PM 59.0 °F 55.4 °F 88% 29.93 in 10.0 mi Calm Calm - N/A   Clear
9:33 PM 59.0 °F 55.4 °F 88% 29.93 in 10.0 mi Calm Calm - N/A   Clear
9:52 PM 57.2 °F 55.4 °F 94% 29.93 in 10.0 mi Calm Calm - N/A   Clear
10:13 PM 55.4 °F 55.4 °F 100% 29.93 in 10.0 mi Calm Calm - N/A   Clear
10:33 PM 57.2 °F 55.4 °F 94% 29.93 in 10.0 mi Calm Calm - N/A   Clear
10:52 PM 55.4 °F 55.4 °F 100% 29.93 in 10.0 mi East 3.5 mph - N/A   Clear
11:13 PM 57.2 °F 55.4 °F 94% 29.93 in 10.0 mi Calm Calm - N/A   Clear
11:33 PM 55.4 °F 55.4 °F 100% 29.93 in 10.0 mi ESE 4.6 mph - N/A   Clear
11:52 PM 53.6 °F 53.6 °F 100% 29.94 in 10.0 mi Calm Calm - N/A   Clear